GLO1722 SBEG-SBRB

Flight info

Callsign GLO1722
Flight time 1h 35m
Altitude 36000
Route UKBEL UZ62 RCO DCT
Aircraft B738/M-SDFGIKLORWXY/LB1

Departure

Time 2026-05-05 17:54
Airport Eduardo Gomes International Airport (SBEG)

Arrival

Time 2026-05-05 19:30
Airport Rio Branco-Plácido de Castro International Airport (SBRB)
Time Latitude Longitude Altitude Speed Heading
2026-05-05 17:34 -3.03276 -60.04581 267 ft 0 kts 357°
2026-05-05 17:45 -3.03286 -60.04581 267 ft 4 kts 355°
2026-05-05 17:46 -3.03313 -60.04577 267 ft 4 kts 346°
2026-05-05 17:46 -3.03338 -60.04569 267 ft 4 kts 326°
2026-05-05 17:46 -3.03353 -60.04552 267 ft 3 kts 270°
2026-05-05 17:46 -3.03353 -60.04548 267 ft 1 kts 265°
2026-05-05 17:49 -3.03353 -60.04552 267 ft 2 kts 265°
2026-05-05 17:49 -3.03355 -60.04581 267 ft 7 kts 266°
2026-05-05 17:49 -3.03355 -60.04646 267 ft 12 kts 274°
2026-05-05 17:50 -3.03361 -60.04743 267 ft 16 kts 254°
2026-05-05 17:50 -3.03432 -60.04846 267 ft 20 kts 220°
2026-05-05 17:50 -3.03540 -60.04939 267 ft 21 kts 231°
2026-05-05 17:50 -3.03599 -60.05073 267 ft 21 kts 255°
2026-05-05 17:51 -3.03636 -60.05213 267 ft 20 kts 255°
2026-05-05 17:51 -3.03670 -60.05348 267 ft 20 kts 259°
2026-05-05 17:51 -3.03689 -60.05483 267 ft 20 kts 266°
2026-05-05 17:51 -3.03691 -60.05641 267 ft 25 kts 270°
2026-05-05 17:52 -3.03691 -60.05830 267 ft 28 kts 270°
2026-05-05 17:52 -3.03690 -60.06009 267 ft 22 kts 270°
2026-05-05 17:52 -3.03700 -60.06128 267 ft 17 kts 241°
2026-05-05 17:52 -3.03799 -60.06176 268 ft 16 kts 175°
2026-05-05 17:53 -3.03858 -60.06114 268 ft 13 kts 97°
2026-05-05 17:53 -3.03858 -60.06000 268 ft 35 kts 90°
2026-05-05 17:53 -3.03858 -60.05503 267 ft 106 kts 90°
2026-05-05 17:53 -3.03862 -60.04554 271 ft 164 kts 90°
2026-05-05 17:54 -3.03862 -60.03333 781 ft 179 kts 90°
2026-05-05 17:54 -3.03866 -60.02064 1524 ft 189 kts 91°
2026-05-05 17:54 -3.03892 -60.00644 1831 ft 218 kts 91°
2026-05-05 17:54 -3.03944 -59.99060 2189 ft 235 kts 97°
2026-05-05 17:55 -3.04615 -59.97537 2559 ft 254 kts 134°
2026-05-05 17:55 -3.06141 -59.96612 3219 ft 264 kts 164°
2026-05-05 17:55 -3.07979 -59.96534 4074 ft 268 kts 192°
2026-05-05 17:55 -3.09659 -59.97354 4878 ft 275 kts 221°
2026-05-05 17:56 -3.10760 -59.98934 5653 ft 282 kts 246°
2026-05-05 17:56 -3.11420 -60.00802 6418 ft 288 kts 252°
2026-05-05 17:56 -3.11992 -60.02738 7181 ft 292 kts 253°
2026-05-05 17:56 -3.12579 -60.04711 7944 ft 297 kts 252°
2026-05-05 17:57 -3.13195 -60.06677 8671 ft 300 kts 251°
2026-05-05 17:57 -3.13849 -60.08678 9392 ft 305 kts 251°
2026-05-05 17:57 -3.14525 -60.10704 10102 ft 308 kts 250°
2026-05-05 17:57 -3.15223 -60.12781 10486 ft 325 kts 250°
2026-05-05 17:58 -3.15796 -60.15041 10743 ft 344 kts 262°
2026-05-05 17:58 -3.16023 -60.17457 11324 ft 351 kts 266°
2026-05-05 17:58 -3.16154 -60.19905 12029 ft 353 kts 267°
2026-05-05 17:58 -3.16287 -60.22367 12726 ft 356 kts 266°
2026-05-05 17:59 -3.16450 -60.24854 13383 ft 359 kts 265°
2026-05-05 17:59 -3.16638 -60.27362 14014 ft 363 kts 265°
2026-05-05 17:59 -3.16838 -60.29897 14639 ft 367 kts 265°
2026-05-05 17:59 -3.17039 -60.32418 15229 ft 370 kts 265°
2026-05-05 18:00 -3.17243 -60.35000 15815 ft 374 kts 265°
2026-05-05 18:00 -3.17449 -60.37612 16368 ft 378 kts 265°
2026-05-05 18:00 -3.17657 -60.40250 16936 ft 381 kts 265°
2026-05-05 18:00 -3.17865 -60.42904 17496 ft 384 kts 265°
2026-05-05 18:01 -3.18076 -60.45581 18031 ft 387 kts 265°
2026-05-05 18:01 -3.18287 -60.48276 18547 ft 391 kts 265°
2026-05-05 18:01 -3.18574 -60.50995 19039 ft 394 kts 257°
2026-05-05 18:01 -3.19582 -60.53550 19516 ft 396 kts 236°
2026-05-05 18:02 -3.21275 -60.55724 20037 ft 396 kts 228°
2026-05-05 18:02 -3.23099 -60.57803 20518 ft 399 kts 227°
2026-05-05 18:02 -3.24964 -60.59883 20949 ft 403 kts 227°
2026-05-05 18:02 -3.26845 -60.61977 21379 ft 406 kts 227°
2026-05-05 18:03 -3.28736 -60.64095 21817 ft 409 kts 227°
2026-05-05 18:03 -3.30628 -60.66232 22240 ft 411 kts 227°
2026-05-05 18:03 -3.32525 -60.68386 22640 ft 414 kts 227°
2026-05-05 18:03 -3.34429 -60.70557 23036 ft 417 kts 228°
2026-05-05 18:04 -3.36319 -60.72718 23425 ft 418 kts 228°
2026-05-05 18:04 -3.38241 -60.74917 23819 ft 420 kts 228°
2026-05-05 18:04 -3.40168 -60.77123 24193 ft 422 kts 228°
2026-05-05 18:04 -3.42107 -60.79343 24541 ft 425 kts 228°
2026-05-05 18:05 -3.44058 -60.81578 24884 ft 427 kts 228°
2026-05-05 18:05 -3.46025 -60.83829 25218 ft 430 kts 228°
2026-05-05 18:05 -3.47996 -60.86086 25547 ft 432 kts 228°
2026-05-05 18:05 -3.49983 -60.88361 25883 ft 434 kts 228°
2026-05-05 18:06 -3.51979 -60.90646 26192 ft 436 kts 228°
2026-05-05 18:06 -3.53304 -60.92163 26389 ft 438 kts 228°
2026-05-05 18:06 -3.55966 -60.95212 26806 ft 440 kts 227°
2026-05-05 18:06 -3.57991 -60.97530 27099 ft 443 kts 227°
2026-05-05 18:07 -3.60022 -60.99857 27403 ft 444 kts 227°
2026-05-05 18:07 -3.62067 -61.02199 27707 ft 446 kts 227°
2026-05-05 18:07 -3.64112 -61.04541 27994 ft 448 kts 227°
2026-05-05 18:07 -3.66167 -61.06896 28256 ft 450 kts 227°
2026-05-05 18:08 -3.68232 -61.09261 28523 ft 452 kts 227°
2026-05-05 18:08 -3.70309 -61.11642 28803 ft 454 kts 227°
2026-05-05 18:08 -3.72392 -61.14028 29082 ft 455 kts 227°
2026-05-05 18:08 -3.74476 -61.16417 29342 ft 457 kts 227°
2026-05-05 18:09 -3.76552 -61.18796 29585 ft 459 kts 227°
2026-05-05 18:09 -3.78660 -61.21212 29808 ft 461 kts 227°
2026-05-05 18:09 -3.80782 -61.23644 30047 ft 463 kts 227°
2026-05-05 18:09 -3.82904 -61.26077 30296 ft 464 kts 227°
2026-05-05 18:10 -3.85029 -61.28514 30534 ft 466 kts 227°
2026-05-05 18:10 -3.87164 -61.30963 30777 ft 467 kts 227°
2026-05-05 18:10 -3.89295 -61.33407 31078 ft 466 kts 227°
2026-05-05 18:10 -3.91443 -61.35843 31326 ft 466 kts 225°
2026-05-05 18:11 -3.93741 -61.38146 31487 ft 468 kts 221°
2026-05-05 18:11 -3.96158 -61.40351 31658 ft 470 kts 220°
2026-05-05 18:11 -3.98613 -61.42512 31863 ft 471 kts 219°
2026-05-05 18:11 -4.01083 -61.44675 32058 ft 472 kts 219°
2026-05-05 18:12 -4.03524 -61.46831 32237 ft 474 kts 220°
2026-05-05 18:12 -4.05989 -61.49035 32411 ft 475 kts 220°
2026-05-05 18:12 -4.08448 -61.51256 32621 ft 476 kts 220°
2026-05-05 18:12 -4.10898 -61.53483 32899 ft 475 kts 220°
2026-05-05 18:13 -4.13337 -61.55708 33154 ft 474 kts 220°
2026-05-05 18:13 -4.15775 -61.57935 33380 ft 474 kts 220°
2026-05-05 18:13 -4.18215 -61.60166 33606 ft 474 kts 220°
2026-05-05 18:13 -4.20649 -61.62389 33844 ft 474 kts 220°
2026-05-05 18:14 -4.23084 -61.64613 34091 ft 473 kts 220°
2026-05-05 18:14 -4.25518 -61.66835 34341 ft 473 kts 220°
2026-05-05 18:14 -4.27956 -61.69061 34582 ft 472 kts 221°
2026-05-05 18:14 -4.30376 -61.71270 34833 ft 471 kts 221°
2026-05-05 18:15 -4.32769 -61.73455 35059 ft 470 kts 221°
2026-05-05 18:15 -4.35191 -61.75666 35276 ft 470 kts 221°
2026-05-05 18:15 -4.37604 -61.77869 35490 ft 469 kts 221°
2026-05-05 18:15 -4.40018 -61.80073 35737 ft 468 kts 221°
2026-05-05 18:16 -4.42423 -61.82270 35935 ft 468 kts 221°
2026-05-05 18:16 -4.47253 -61.86681 35945 ft 468 kts 221°
2026-05-05 18:17 -4.52046 -61.91060 35936 ft 462 kts 221°
2026-05-05 18:17 -4.56785 -61.95390 35948 ft 460 kts 221°
2026-05-05 18:18 -4.61485 -61.99685 35942 ft 459 kts 221°
2026-05-05 18:18 -4.66205 -62.03999 35944 ft 459 kts 221°
2026-05-05 18:19 -4.70926 -62.08315 35948 ft 459 kts 221°
2026-05-05 18:19 -4.75654 -62.12638 35947 ft 460 kts 221°
2026-05-05 18:20 -4.80401 -62.16980 35948 ft 462 kts 221°
2026-05-05 18:20 -4.85153 -62.21327 35946 ft 463 kts 221°
2026-05-05 18:21 -4.89929 -62.25697 35945 ft 464 kts 221°
2026-05-05 18:21 -4.94704 -62.30068 35945 ft 466 kts 221°
2026-05-05 18:22 -4.99496 -62.34454 35945 ft 466 kts 221°
2026-05-05 18:22 -5.04265 -62.38822 35944 ft 467 kts 221°
2026-05-05 18:23 -5.09063 -62.43216 35943 ft 467 kts 221°
2026-05-05 18:23 -5.13790 -62.47684 35942 ft 467 kts 225°
2026-05-05 18:24 -5.18085 -62.52563 35954 ft 466 kts 229°
2026-05-05 18:24 -5.22269 -62.57520 35953 ft 465 kts 228°
2026-05-05 18:25 -5.26501 -62.62439 35952 ft 464 kts 228°
2026-05-05 18:25 -5.30753 -62.67309 35953 ft 464 kts 227°
2026-05-05 18:26 -5.34982 -62.72138 35954 ft 463 kts 227°
2026-05-05 18:26 -5.39232 -62.76992 35954 ft 463 kts 227°
2026-05-05 18:27 -5.43480 -62.81848 35955 ft 462 kts 227°
2026-05-05 18:27 -5.47724 -62.86702 35954 ft 463 kts 227°
2026-05-05 18:28 -5.54091 -62.93987 35954 ft 463 kts 228°
2026-05-05 18:28 -5.57619 -62.98025 35954 ft 463 kts 228°
2026-05-05 18:29 -5.61874 -63.02895 35954 ft 463 kts 228°
2026-05-05 18:29 -5.66124 -63.07763 35953 ft 464 kts 228°
2026-05-05 18:30 -5.70384 -63.12642 35954 ft 464 kts 228°
2026-05-05 18:30 -5.74623 -63.17482 35955 ft 464 kts 227°
2026-05-05 18:31 -5.78972 -63.22283 35953 ft 464 kts 226°
2026-05-05 18:31 -5.83340 -63.27067 35955 ft 465 kts 227°
2026-05-05 18:32 -5.87698 -63.31862 35953 ft 465 kts 227°
2026-05-05 18:32 -5.92051 -63.36666 35954 ft 465 kts 227°
2026-05-05 18:33 -5.96404 -63.41473 35957 ft 465 kts 227°
2026-05-05 18:33 -6.00754 -63.46277 35955 ft 465 kts 227°
2026-05-05 18:34 -6.05105 -63.51083 35950 ft 465 kts 227°
2026-05-05 18:34 -6.09444 -63.55901 35953 ft 464 kts 227°
2026-05-05 18:35 -6.13726 -63.60744 35953 ft 463 kts 228°
2026-05-05 18:35 -6.17999 -63.65584 35954 ft 463 kts 228°
2026-05-05 18:36 -6.22249 -63.70389 35954 ft 462 kts 227°
2026-05-05 18:36 -6.26525 -63.75222 35954 ft 462 kts 228°
2026-05-05 18:37 -6.30799 -63.80053 35954 ft 462 kts 227°
2026-05-05 18:37 -6.35067 -63.84891 35955 ft 462 kts 228°
2026-05-05 18:38 -6.39319 -63.89733 35954 ft 462 kts 228°
2026-05-05 18:38 -6.43575 -63.94579 35955 ft 462 kts 228°
2026-05-05 18:39 -6.47834 -63.99423 35954 ft 462 kts 228°
2026-05-05 18:39 -6.52099 -64.04265 35954 ft 462 kts 228°
2026-05-05 18:40 -6.56367 -64.09113 35954 ft 462 kts 228°
2026-05-05 18:40 -6.60598 -64.13924 35954 ft 462 kts 228°
2026-05-05 18:41 -6.64864 -64.18776 35954 ft 462 kts 228°
2026-05-05 18:41 -6.69126 -64.23624 35953 ft 462 kts 228°
2026-05-05 18:42 -6.73389 -64.28471 35953 ft 462 kts 228°
2026-05-05 18:42 -6.77660 -64.33318 35954 ft 462 kts 228°
2026-05-05 18:43 -6.81921 -64.38157 35953 ft 462 kts 228°
2026-05-05 18:43 -6.86147 -64.42958 35956 ft 461 kts 228°
2026-05-05 18:44 -6.90403 -64.47796 35952 ft 461 kts 228°
2026-05-05 18:44 -6.94655 -64.52630 35961 ft 461 kts 228°
2026-05-05 18:45 -6.98915 -64.57477 35952 ft 462 kts 228°
2026-05-05 18:45 -7.03178 -64.62327 35946 ft 462 kts 228°
2026-05-05 18:46 -7.07435 -64.67172 35952 ft 461 kts 228°
2026-05-05 18:46 -7.11652 -64.71972 35953 ft 460 kts 228°
2026-05-05 18:47 -7.15894 -64.76804 35954 ft 460 kts 228°
2026-05-05 18:47 -7.20135 -64.81635 35954 ft 459 kts 228°
2026-05-05 18:48 -7.24364 -64.86454 35956 ft 459 kts 228°
2026-05-05 18:48 -7.28593 -64.91274 35954 ft 459 kts 228°
2026-05-05 18:49 -7.32818 -64.96092 35953 ft 459 kts 228°
2026-05-05 18:49 -7.37049 -65.00917 35954 ft 459 kts 228°
2026-05-05 18:50 -7.41245 -65.05705 35954 ft 459 kts 228°
2026-05-05 18:50 -7.45467 -65.10524 35954 ft 459 kts 228°
2026-05-05 18:51 -7.49693 -65.15350 35954 ft 459 kts 228°
2026-05-05 18:51 -7.53920 -65.20179 35954 ft 459 kts 228°
2026-05-05 18:52 -7.58166 -65.24982 35954 ft 459 kts 227°
2026-05-05 18:52 -7.62486 -65.29745 35958 ft 460 kts 227°
2026-05-05 18:53 -7.66807 -65.34497 35965 ft 460 kts 227°
2026-05-05 18:53 -7.71123 -65.39261 35966 ft 460 kts 227°
2026-05-05 18:54 -7.75439 -65.44037 35962 ft 461 kts 227°
2026-05-05 18:54 -7.79752 -65.48813 35965 ft 461 kts 227°
2026-05-05 18:55 -7.84069 -65.53596 35961 ft 461 kts 227°
2026-05-05 18:55 -7.88355 -65.58345 35963 ft 460 kts 227°
2026-05-05 18:56 -7.92661 -65.63118 35962 ft 460 kts 227°
2026-05-05 18:56 -7.96962 -65.67887 35962 ft 459 kts 227°
2026-05-05 18:57 -8.01263 -65.72657 35970 ft 459 kts 228°
2026-05-05 18:57 -8.05557 -65.77421 35973 ft 458 kts 228°
2026-05-05 18:58 -8.09846 -65.82181 35972 ft 458 kts 228°
2026-05-05 18:58 -8.14134 -65.86942 35972 ft 458 kts 228°
2026-05-05 18:59 -8.18417 -65.91699 35972 ft 458 kts 228°
2026-05-05 18:59 -8.22701 -65.96458 35973 ft 458 kts 228°
2026-05-05 19:00 -8.26979 -66.01214 35973 ft 458 kts 228°
2026-05-05 19:00 -8.31235 -66.05945 35973 ft 458 kts 228°
2026-05-05 19:01 -8.35519 -66.10709 35973 ft 458 kts 228°
2026-05-05 19:01 -8.39810 -66.15484 35970 ft 459 kts 228°
2026-05-05 19:02 -8.44100 -66.20258 35974 ft 459 kts 228°
2026-05-05 19:02 -8.48390 -66.25034 35972 ft 459 kts 228°
2026-05-05 19:03 -8.52685 -66.29819 35973 ft 460 kts 228°
2026-05-05 19:03 -8.56989 -66.34614 35973 ft 460 kts 228°
2026-05-05 19:04 -8.61287 -66.39405 35974 ft 461 kts 228°
2026-05-05 19:04 -8.65624 -66.44240 35988 ft 467 kts 228°
2026-05-05 19:05 -8.69972 -66.49090 35730 ft 474 kts 228°
2026-05-05 19:05 -8.72199 -66.51575 35137 ft 478 kts 228°
2026-05-05 19:05 -8.74433 -66.54069 34494 ft 477 kts 228°
2026-05-05 19:06 -8.76664 -66.56558 33829 ft 477 kts 228°
2026-05-05 19:06 -8.78897 -66.59050 33142 ft 478 kts 228°
2026-05-05 19:06 -8.81133 -66.61547 32434 ft 478 kts 227°
2026-05-05 19:06 -8.83339 -66.64011 31792 ft 478 kts 227°
2026-05-05 19:07 -8.85560 -66.66492 31303 ft 474 kts 227°
2026-05-05 19:07 -8.87051 -66.68158 30954 ft 471 kts 227°
2026-05-05 19:07 -8.89947 -66.71395 30287 ft 467 kts 227°
2026-05-05 19:07 -8.92127 -66.73831 29788 ft 463 kts 227°
2026-05-05 19:08 -8.94282 -66.76240 29288 ft 460 kts 227°
2026-05-05 19:08 -8.96418 -66.78629 28780 ft 456 kts 227°
2026-05-05 19:08 -8.98538 -66.80999 28283 ft 453 kts 227°
2026-05-05 19:08 -9.00643 -66.83353 27781 ft 450 kts 227°
2026-05-05 19:09 -9.02733 -66.85692 27284 ft 446 kts 227°
2026-05-05 19:09 -9.04811 -66.88017 26790 ft 443 kts 227°
2026-05-05 19:09 -9.06875 -66.90326 26298 ft 440 kts 227°
2026-05-05 19:09 -9.08922 -66.92617 25816 ft 437 kts 227°
2026-05-05 19:10 -9.10952 -66.94891 25309 ft 434 kts 227°
2026-05-05 19:10 -9.12969 -66.97148 24818 ft 431 kts 227°
2026-05-05 19:10 -9.14976 -66.99396 24334 ft 429 kts 227°
2026-05-05 19:10 -9.16942 -67.01599 23861 ft 426 kts 227°
2026-05-05 19:11 -9.18921 -67.03816 23384 ft 423 kts 227°
2026-05-05 19:11 -9.20887 -67.06019 22905 ft 420 kts 227°
2026-05-05 19:11 -9.22840 -67.08207 22440 ft 417 kts 227°
2026-05-05 19:11 -9.24778 -67.10380 21973 ft 414 kts 227°
2026-05-05 19:12 -9.26703 -67.12539 21507 ft 411 kts 227°
2026-05-05 19:12 -9.28614 -67.14681 21044 ft 409 kts 227°
2026-05-05 19:12 -9.30512 -67.16809 20587 ft 406 kts 227°
2026-05-05 19:12 -9.32398 -67.18926 20132 ft 403 kts 228°
2026-05-05 19:13 -9.34267 -67.21022 19681 ft 400 kts 228°
2026-05-05 19:13 -9.36126 -67.23108 19230 ft 397 kts 228°
2026-05-05 19:13 -9.37967 -67.25174 18782 ft 394 kts 228°
2026-05-05 19:13 -9.39183 -67.26540 18488 ft 392 kts 228°
2026-05-05 19:14 -9.41595 -67.29247 17899 ft 389 kts 228°
2026-05-05 19:14 -9.43400 -67.31274 17459 ft 386 kts 228°
2026-05-05 19:14 -9.45195 -67.33290 17022 ft 383 kts 228°
2026-05-05 19:14 -9.46974 -67.35288 16579 ft 380 kts 228°
2026-05-05 19:15 -9.48741 -67.37274 16152 ft 378 kts 228°
2026-05-05 19:15 -9.49925 -67.38604 15861 ft 376 kts 228°
2026-05-05 19:15 -9.51649 -67.40542 15437 ft 373 kts 228°
2026-05-05 19:15 -9.53383 -67.42490 15011 ft 371 kts 228°
2026-05-05 19:16 -9.55105 -67.44426 14586 ft 368 kts 228°
2026-05-05 19:16 -9.56815 -67.46348 14163 ft 365 kts 228°
2026-05-05 19:16 -9.58509 -67.48253 13740 ft 363 kts 228°
2026-05-05 19:16 -9.60192 -67.50147 13316 ft 360 kts 228°
2026-05-05 19:17 -9.61866 -67.52029 12897 ft 358 kts 228°
2026-05-05 19:17 -9.63526 -67.53897 12480 ft 356 kts 228°
2026-05-05 19:17 -9.65179 -67.55757 12064 ft 353 kts 228°
2026-05-05 19:17 -9.66817 -67.57601 11649 ft 351 kts 228°
2026-05-05 19:18 -9.68444 -67.59432 11237 ft 348 kts 228°
2026-05-05 19:18 -9.70060 -67.61251 10824 ft 346 kts 228°
2026-05-05 19:18 -9.71661 -67.63054 10559 ft 339 kts 228°
2026-05-05 19:18 -9.73216 -67.64805 10404 ft 329 kts 228°
2026-05-05 19:19 -9.74710 -67.66487 10262 ft 320 kts 228°
2026-05-05 19:19 -9.76197 -67.68163 10122 ft 311 kts 228°
2026-05-05 19:19 -9.77609 -67.69753 9991 ft 303 kts 228°
2026-05-05 19:19 -9.78993 -67.71312 9922 ft 292 kts 228°
2026-05-05 19:20 -9.80364 -67.72859 9494 ft 295 kts 228°
2026-05-05 19:20 -9.81732 -67.74400 9195 ft 294 kts 228°
2026-05-05 19:20 -9.83100 -67.75942 8882 ft 293 kts 228°
2026-05-05 19:20 -9.84457 -67.77472 8576 ft 291 kts 228°
2026-05-05 19:21 -9.85810 -67.78998 8272 ft 290 kts 228°
2026-05-05 19:21 -9.87160 -67.80521 7972 ft 289 kts 228°
2026-05-05 19:21 -9.88502 -67.82034 7664 ft 288 kts 228°
2026-05-05 19:21 -9.89834 -67.83537 7368 ft 286 kts 228°
2026-05-05 19:22 -9.91163 -67.85037 7010 ft 287 kts 228°
2026-05-05 19:22 -9.92505 -67.86550 6646 ft 288 kts 228°
2026-05-05 19:22 -9.93838 -67.88055 6329 ft 287 kts 228°
2026-05-05 19:22 -9.95152 -67.89539 6026 ft 285 kts 228°
2026-05-05 19:23 -9.96493 -67.91052 5724 ft 284 kts 228°
2026-05-05 19:23 -9.97790 -67.92517 5434 ft 282 kts 228°
2026-05-05 19:23 -9.99099 -67.93995 5143 ft 278 kts 228°
2026-05-05 19:23 -10.00369 -67.95428 4918 ft 267 kts 228°
2026-05-05 19:24 -10.01564 -67.96778 4834 ft 247 kts 228°
2026-05-05 19:24 -10.02672 -67.98028 4692 ft 230 kts 228°
2026-05-05 19:24 -10.03646 -67.99244 4510 ft 216 kts 243°
2026-05-05 19:24 -10.03808 -68.00674 4308 ft 202 kts 290°
2026-05-05 19:25 -10.02948 -68.01767 4241 ft 206 kts 329°
2026-05-05 19:25 -10.01678 -68.02541 4099 ft 217 kts 328°
2026-05-05 19:25 -10.00382 -68.03263 4023 ft 209 kts 340°
2026-05-05 19:25 -9.98997 -68.03533 3929 ft 200 kts
2026-05-05 19:26 -9.97637 -68.03274 3780 ft 200 kts 21°
2026-05-05 19:26 -9.96412 -68.02617 3548 ft 199 kts 36°
2026-05-05 19:26 -9.95314 -68.01777 3303 ft 197 kts 38°
2026-05-05 19:26 -9.94350 -68.00806 3058 ft 194 kts 50°
2026-05-05 19:27 -9.93532 -67.99755 2803 ft 184 kts 54°
2026-05-05 19:27 -9.92854 -67.98737 2608 ft 168 kts 57°
2026-05-05 19:27 -9.92235 -67.97767 2367 ft 162 kts 57°
2026-05-05 19:27 -9.91623 -67.96806 2150 ft 162 kts 57°
2026-05-05 19:28 -9.91010 -67.95843 1936 ft 162 kts 57°
2026-05-05 19:28 -9.90396 -67.94880 1719 ft 162 kts 57°
2026-05-05 19:28 -9.89786 -67.93924 1504 ft 161 kts 57°
2026-05-05 19:28 -9.89176 -67.92967 1290 ft 161 kts 57°
2026-05-05 19:29 -9.88572 -67.92015 1082 ft 160 kts 58°
2026-05-05 19:29 -9.87975 -67.91061 891 ft 160 kts 57°
2026-05-05 19:29 -9.87366 -67.90117 712 ft 160 kts 57°
2026-05-05 19:29 -9.86777 -67.89203 630 ft 135 kts 57°
2026-05-05 19:30 -9.86482 -67.88741 609 ft 30 kts 57°
2026-05-05 19:30 -9.86387 -67.88631 607 ft 15 kts 21°
2026-05-05 19:30 -9.86377 -67.88586 606 ft 8 kts 167°
2026-05-05 19:30 -9.86411 -67.88627 607 ft 8 kts 238°
2026-05-05 19:31 -9.86449 -67.88688 608 ft 13 kts 238°
2026-05-05 19:31 -9.86501 -67.88772 609 ft 15 kts 238°
2026-05-05 19:31 -9.86554 -67.88858 611 ft 14 kts 238°
2026-05-05 19:31 -9.86611 -67.88942 613 ft 15 kts 234°
2026-05-05 19:32 -9.86672 -67.89028 615 ft 15 kts 234°
2026-05-05 19:32 -9.86730 -67.89115 618 ft 15 kts 236°
2026-05-05 19:32 -9.86774 -67.89203 621 ft 14 kts 261°
2026-05-05 19:32 -9.86767 -67.89299 623 ft 14 kts 284°
2026-05-05 19:33 -9.86745 -67.89400 624 ft 16 kts 282°
2026-05-05 19:33 -9.86725 -67.89508 625 ft 15 kts 280°
2026-05-05 19:33 -9.86703 -67.89607 626 ft 7 kts 306°
2026-05-05 19:33 -9.86696 -67.89612 626 ft 0 kts 331°